W9PPN Weather Reports


time (UTC)temp
F
wind
direction
speed
knots
gust
knots
rain 1hr
in
rain 24hr
in
rain mn
in
humidity
%
barometer
mb
20260503185337 62 231 7.8 20.0 0.00 0.03 0.01 25 998.7
20260503184827 62 289 10.4 20.0 0.00 0.03 0.01 25 998.7
20260503184313 62 329 9.6 20.0 0.00 0.03 0.01 27 998.8
20260503183808 63 302 7.0 18.2 0.00 0.03 0.01 29 998.8
20260503183302 63 229 7.0 18.2 0.00 0.03 0.01 29 998.8
20260503183025 63 243 7.0 15.6 0.00 0.03 0.01 33 998.8
20260503182509 63 325 7.0 13.9 0.00 0.03 0.01 38 998.8
20260503182009 63 304 6.1 13.9 0.00 0.03 0.01 33 998.8
20260503181237 63 275 6.1 13.9 0.00 0.03 0.01 34 999.0
20260503180954 63 239 6.1 13.0 0.00 0.03 0.01 36 999.0
20260503180225 63 285 5.2 19.1 0.00 0.03 0.01 33 999.0
20260503175720 63 258 5.2 19.1 0.00 0.03 0.01 36 998.9
20260503175214 62 192 7.0 19.1 0.00 0.03 0.01 38 998.9
20260503174927 62 293 7.8 19.1 0.00 0.03 0.01 40 998.9
20260503174648 62 270 7.8 18.2 0.00 0.03 0.01 42 999.2
20260503173657 63 322 6.1 18.2 0.00 0.03 0.01 39 999.2
20260503173151 63 266 6.1 19.1 0.01 0.03 0.01 41 999.2
20260503172646 62 308 6.1 19.1 0.01 0.04 0.01 42 999.0
20260503172138 62 253 7.8 19.1 0.01 0.04 0.01 42 999.0
20260503172117 62 302 7.8 19.1 0.01 0.04 0.01 44 999.0
20260503171347 63 313 7.0 18.2 0.01 0.04 0.01 41 999.1
20260503170620 62 243 6.1 18.2 0.01 0.04 0.01 43 999.1
20260503170115 62 297 7.0 18.2 0.01 0.04 0.01 42 999.1
20260503151013 60 308 3.5 11.3 0.00 0.04 0.00 48 999.3
20260503150516 60 216 5.2 11.3 0.00 0.05 0.00 49 999.3
20260503150236 59 305 7.0 11.3 0.00 0.05 0.00 50 999.3
20260503140142 57 262 1.7 7.8 0.00 0.06 0.00 55 999.9
20260503130815 54 305 2.6 5.2 0.00 0.06 0.00 62 999.9
20260503130308 54 305 2.6 5.2 0.00 0.06 0.00 62 999.9
20260503110450 48 305 0.0 0.0 0.00 0.08 0.00 77 999.9
20260503100246 50 305 0.0 0.0 0.00 0.08 0.00 75 1000.0
20260503090136 49 305 0.0 0.0 0.00 0.08 0.00 73 1000.6
20260503081536 49 305 0.0 0.0 0.00 0.08 0.00 76 1001.1
20260503081030 49 305 0.0 0.0 0.00 0.08 0.00 76 1001.5
20260503080526 49 305 0.0 0.0 0.00 0.08 0.00 75 1001.5
20260503072943 49 305 0.0 0.0 0.00 0.08 0.00 73 1001.6
20260503072438 49 305 0.0 0.0 0.00 0.08 0.00 73 1001.6
20260503072149 48 305 0.0 0.0 0.00 0.08 0.00 73 1001.6
20260503071425 48 305 0.0 0.0 0.00 0.08 0.00 73 1001.6
20260503070918 48 305 0.0 0.0 0.00 0.08 0.00 73 1001.6
20260503070412 48 305 0.0 0.0 0.00 0.08 0.00 72 1001.6
20260503060301 48 305 0.9 5.2 0.00 0.08 0.00 68 1002.1
20260503055002 49 305 5.2 10.4 0.00 0.08 0.00 66 1002.5
20260503054235 49 317 6.1 10.4 0.00 0.08 0.00 66 1002.5
20260503053731 49 302 6.1 10.4 0.00 0.08 0.00 67 1002.5
20260503053225 49 308 6.1 9.6 0.00 0.08 0.00 66 1002.5
20260503053203 49 311 6.1 12.2 0.00 0.08 0.00 65 1002.5
20260503052211 49 317 6.1 12.2 0.00 0.08 0.00 63 1002.5
20260503051707 49 311 7.0 12.2 0.01 0.08 0.00 61 1002.5
20260503051201 50 329 8.7 13.9 0.01 0.08 0.00 59 1002.6
20260503050654 50 319 8.7 13.9 0.01 0.08 0.00 55 1002.6
20260503050413 51 296 7.8 14.8 0.01 0.08 0.00 53 1002.6
20260503045641 52 313 7.0 14.8 0.01 0.08 0.08 52 1002.6
20260503045135 52 309 7.0 13.9 0.01 0.08 0.08 52 1002.6
20260503044630 53 302 7.0 13.9 0.01 0.08 0.08 52 1002.6
20260503044124 53 315 7.0 13.0 0.01 0.08 0.08 51 1002.6
20260503043844 53 294 7.0 13.0 0.01 0.08 0.08 49 1002.6
20260503043336 53 307 6.1 13.0 0.01 0.08 0.08 49 1002.6
20260503042607 53 313 5.2 10.4 0.01 0.08 0.08 49 1002.6
20260503042100 53 311 3.5 10.4 0.00 0.07 0.07 48 1002.6
20260503041557 53 280 4.3 7.8 0.00 0.07 0.07 47 1002.6
20260503041049 53 308 2.6 7.8 0.00 0.07 0.07 46 1002.6
20260503040541 52 308 0.9 6.1 0.00 0.07 0.07 47 1002.6
20260503040039 52 145 0.0 0.0 0.00 0.07 0.07 46 1002.6
20260503035531 52 144 0.0 0.0 0.00 0.07 0.07 44 1002.6
20260503035025 52 143 0.0 0.0 0.00 0.07 0.07 43 1002.6
20260503034735 52 143 0.0 0.0 0.00 0.07 0.07 41 1002.6
20260503034013 52 141 0.0 0.0 0.00 0.07 0.07 41 1002.9
20260503033507 52 137 0.0 0.0 0.00 0.07 0.07 41 1002.9
20260503033006 52 137 0.0 0.0 0.00 0.07 0.07 41 1002.9
20260503032506 52 137 0.0 0.0 0.00 0.07 0.07 41 1003.1
20260503032005 51 137 0.0 0.0 0.00 0.07 0.07 42 1003.1
20260503031508 51 131 0.0 0.0 0.00 0.07 0.07 41 1003.1
20260503031223 51 122 0.0 0.0 0.00 0.07 0.07 42 1003.1
20260503030501 50 92 0.0 0.0 0.00 0.07 0.07 44 1003.1
20260503030225 50 92 0.0 0.0 0.00 0.07 0.07 44 1003.1
20260503025501 50 92 0.0 0.0 0.00 0.07 0.07 41 1003.4
20260503025001 50 92 0.0 0.0 0.00 0.07 0.07 40 1003.4
20260503024459 50 92 0.0 0.0 0.00 0.07 0.07 40 1003.4
20260503023957 50 92 0.0 0.0 0.00 0.07 0.07 41 1003.6
20260503023456 50 92 0.0 0.0 0.00 0.07 0.07 41 1003.6
20260503022954 50 92 0.0 0.0 0.00 0.07 0.07 44 1003.6
20260503022454 51 92 0.0 0.0 0.00 0.07 0.07 44 1003.6
20260503021955 51 92 0.0 0.0 0.00 0.07 0.07 44 1003.6
20260503021457 51 92 0.0 0.0 0.00 0.07 0.07 42 1003.6
20260503020951 50 92 0.0 0.0 0.00 0.07 0.07 34 1003.6
20260503020700 50 92 0.0 0.0 0.00 0.07 0.07 34 1003.6
20260503015927 50 92 0.0 0.0 0.00 0.07 0.07 35 1003.7
20260503015415 50 92 0.0 0.0 0.00 0.07 0.07 35 1003.7
20260503014902 50 92 0.0 0.0 0.00 0.07 0.07 35 1003.7
20260503014349 50 92 0.0 0.0 0.00 0.07 0.07 34 1003.9
20260503013838 50 92 0.0 0.0 0.00 0.07 0.07 34 1003.9
20260503013326 50 92 0.0 0.0 0.00 0.07 0.07 33 1003.9
20260503013035 50 92 0.0 0.0 0.00 0.07 0.07 33 1004.0
20260503012305 50 92 0.0 0.0 0.00 0.07 0.07 34 1004.0
20260503011750 51 92 0.0 0.0 0.00 0.07 0.07 37 1004.0
20260503011237 51 92 0.0 0.0 0.00 0.07 0.07 35 1004.0
20260503010726 51 92 0.0 0.0 0.00 0.07 0.07 33 1004.0
20260503010214 51 92 0.0 0.0 0.00 0.07 0.07 34 1004.0
20260503005932 51 92 0.0 0.0 0.00 0.07 0.07 34 1004.2
20260503005148 51 92 0.0 0.0 0.00 0.07 0.07 34 1004.2
20260503004637 51 92 0.0 0.0 0.00 0.07 0.07 33 1004.2
20260503004353 51 92 0.0 0.0 0.00 0.07 0.07 34 1004.5
20260503003614 51 92 0.0 0.0 0.00 0.07 0.07 34 1004.5
20260503003104 51 92 0.0 0.0 0.00 0.07 0.07 35 1004.5
20260503002555 51 92 0.0 0.0 0.00 0.07 0.07 33 1004.7
20260503002049 51 92 0.0 0.0 0.00 0.07 0.07 34 1004.7
20260503001543 51 92 0.0 0.0 0.00 0.07 0.07 34 1004.7
20260503001038 51 92 0.0 0.0 0.00 0.07 0.07 34 1004.8
20260503000530 51 92 0.0 0.0 0.00 0.07 0.07 34 1004.8
20260503000023 51 92 0.0 0.0 0.00 0.07 0.07 34 1004.8
20260502235517 51 92 0.0 0.0 0.00 0.07 0.07 34 1005.2
20260502235011 51 92 0.0 0.0 0.00 0.07 0.07 37 1005.2
20260502234504 51 92 0.0 0.0 0.00 0.07 0.07 35 1005.2
20260502234219 51 92 0.0 0.0 0.00 0.07 0.07 34 1005.2
20260502233452 52 92 0.0 2.6 0.00 0.07 0.07 33 1005.2
20260502232948 52 92 0.0 2.6 0.00 0.07 0.07 32 1005.3
20260502232440 52 92 0.9 5.2 0.00 0.07 0.07 32 1005.3
20260502232153 52 92 1.7 5.2 0.00 0.07 0.07 32 1005.3
20260502231429 52 92 1.7 5.2 0.00 0.07 0.07 35 1005.3
20260502230925 52 92 1.7 5.2 0.00 0.07 0.07 32 1005.3
20260502230418 52 91 1.7 4.3 0.00 0.07 0.07 33 1005.3
20260502225912 51 91 2.6 6.1 0.00 0.07 0.07 33 1005.6
20260502225404 51 91 2.6 6.1 0.00 0.07 0.07 32 1005.6
20260502224854 52 91 2.6 6.1 0.00 0.07 0.07 32 1005.6
20260502224354 52 91 2.6 6.1 0.00 0.07 0.07 31 1005.8
20260502223847 52 87 2.6 7.8 0.00 0.07 0.07 30 1005.8
20260502223341 52 83 3.5 7.8 0.00 0.07 0.07 31 1005.8
20260502222836 52 93 4.3 7.8 0.00 0.07 0.07 32 1005.9
20260502222332 53 99 3.5 7.8 0.00 0.07 0.07 30 1005.9
20260502221823 53 99 2.6 6.1 0.00 0.07 0.07 32 1005.9
20260502221316 53 99 2.6 6.1 0.00 0.07 0.07 30 1006.1
20260502220811 53 114 1.7 5.2 0.00 0.07 0.07 30 1006.1
20260502220532 53 112 1.7 5.2 0.00 0.07 0.07 30 1006.1
20260502215754 53 104 1.7 5.2 0.00 0.07 0.07 32 1006.3
20260502215253 52 91 2.6 5.2 0.00 0.07 0.07 30 1006.3
20260502214746 53 92 2.6 5.2 0.01 0.07 0.07 30 1006.3
20260502214459 53 91 0.9 7.0 0.01 0.07 0.07 30 1006.4
20260502213735 53 104 1.7 7.0 0.01 0.07 0.07 30 1006.4
20260502213228 53 104 2.6 7.0 0.01 0.07 0.07 30 1006.4
20260502212722 53 104 2.6 7.0 0.01 0.07 0.07 29 1006.8
20260502212218 53 90 1.7 6.1 0.01 0.07 0.07 32 1006.8
20260502211710 53 89 1.7 6.1 0.01 0.07 0.07 32 1006.8
20260502211206 52 88 2.6 7.0 0.01 0.07 0.07 31 1006.9
20260502210652 52 103 2.6 7.0 0.01 0.07 0.07 29 1006.9
20260502210154 52 106 3.5 7.8 0.01 0.07 0.07 32 1006.9
20260502205647 53 97 2.6 7.8 0.01 0.07 0.07 30 1007.1
20260502205410 53 106 2.6 7.8 0.00 0.06 0.07 31 1007.1
20260502204854 53 93 2.6 7.8 0.00 0.06 0.06 32 1007.1
20260502204350 53 101 2.6 5.2 0.00 0.06 0.06 32 1007.4
20260502203624 53 100 1.7 4.3 0.00 0.06 0.06 31 1007.4
20260502203113 53 99 1.7 4.3 0.00 0.06 0.06 30 1007.4
20260502202607 54 99 2.6 8.7 0.00 0.06 0.06 31 1007.6
20260502202101 54 96 3.5 8.7 0.00 0.06 0.06 33 1007.6
20260502201556 54 95 4.3 8.7 0.00 0.06 0.06 29 1007.6
20260502201048 54 106 4.3 8.7 0.00 0.06 0.06 31 1008.0
20260502200542 55 103 3.5 7.8 0.00 0.06 0.06 31 1008.0
20260502200036 55 96 3.5 7.0 0.00 0.06 0.06 30 1008.0
20260502195531 55 143 2.6 8.7 0.00 0.06 0.06 30 1008.1
20260502195024 55 94 2.6 8.7 0.00 0.06 0.06 30 1008.1
20260502194518 54 103 3.5 9.6 0.00 0.06 0.06 32 1008.1
20260502194013 54 93 3.5 9.6 0.00 0.06 0.06 30 1008.5
20260502193507 54 104 3.5 12.2 0.00 0.06 0.06 32 1008.5
20260502193002 53 98 4.3 12.2 0.00 0.06 0.06 32 1008.5
20260502192500 53 72 4.3 10.4 0.00 0.06 0.06 31 1008.6
20260502192000 53 102 5.2 10.4 0.00 0.06 0.06 31 1008.6
20260502191458 53 68 5.2 10.4 0.00 0.06 0.06 31 1008.6
20260502190958 53 101 5.2 9.6 0.00 0.06 0.06 31 1008.9
20260502190459 53 106 5.2 8.7 0.00 0.06 0.06 30 1008.9
20260502185956 52 79 4.3 8.7 0.00 0.06 0.06 33 1008.9